Погода в Бирмингеме

США     33°31′26″N   86°48′17″W
темп.,
°C
ветер,
м/с
пор.,
м/с
влажн.,
%
обл.,
%
осадки,
мм/ч
давл.,
гПа
погр.,
м
16 октября, сб
сб1601:00+21ююз3118738 0.6 1012318
04:00+19сз5995100 1.3 1014699
07:00+15ссз51090100 1.4 1017733
10:00+16ссз611580 0.0 1020820
13:00+19ссз69340 0.0 10191298
16:00+18ссз69370 0.0 10191389
19:00+14с410500 0.0 10211018
22:00+12ссз29590 0.0 1022379
17 октября, вс
вс1701:00+12ссз311600 0.0 1023416
04:00+10с29620 0.0 1023305
07:00+9с210610 0.0 1024328
10:00+15с48400 0.0 1024748
13:00+19с46300 0.0 10231128
16:00+19с45340 0.0 10221136
19:00+14с38540 0.0 1022373
22:00+12с26611 0.0 1023199
18 октября, пн
пн1801:00+11ссв266192 0.0 1023162
04:00+10св246398 0.0 1023122
07:00+9всв266599 0.0 1023164
10:00+15всв244591 0.0 1024431
13:00+20в2233100 0.0 1022865
16:00+21в1132100 0.0 10201031
19:00+16всв1147100 0.0 102111
22:00+14вюв115446 0.0 102220
19 октября, вт
вт1901:00+13вюв11609 0.0 102218
04:00+12в11662 0.0 102216
07:00+11вюв11704 0.0 102412
10:00+17юв23495 0.0 1024420
13:00+22ююв23365 0.0 10231149
16:00+23ююв233428 0.0 10211345
19:00+18ю115016 0.0 102214
22:00+16юв1154100 0.0 102315
20 октября, ср
ср2001:00+15вюв1260100 0.0 102247
04:00+14вюв116777 0.0 102316
07:00+14вюв117188 0.0 102431
10:00+19юв2355100 0.0 1024299
13:00+23ю2347100 0.0 1023933
16:00+23ю2252100 0.0 10211113
19:00+20ю1165100 0.0 102111
22:00+18юв117178 0.0 102115